Regional Weather Roundup
Issued by NWS

Home | Current Version | Previous Version | Text Only | Print | Product List | Glossary Off
Versions: 1 2 3 4 5 6 7 8 9 10 11 12 13 14 15 16 17 18 19 20 21 22 23 24 25 26 27 28 29 30 31 32 33 34 35 36 37 38 39 40 41 42 43 44 45 46 47 48 49 50

000
ASUS43 KLSX 080057
RWRMO

WEATHER SUMMARY FOR MISSOURI
NATIONAL WEATHER SERVICE SPRINGFIELD MO
700 PM CST WED DEC 07 2016

NOTE: "FAIR" INDICATES FEW OR NO CLOUDS BELOW 12,000 FEET WITH NO
       SIGNIFICANT WEATHER AND/OR OBSTRUCTIONS TO VISIBILITY.
       CURRENT SKY AND/OR WEATHER CONDITIONS ARE NOT AVAILABLE FOR
       CHILLICOTHE AND FARMINGTON.

MOZ001>031-035>038-043-044-053-054-080200-
...NORTHERN AND WESTERN MISSOURI...

CITY           SKY/WX    TMP DP  RH WIND       PRES   REMARKS
KANSAS CTY INT PTCLDY    22  10  60 NW6       30.40R WCI  14
LEE`S SUMMIT   MOCLDY    25  13  60 NW14      30.39R WCI  13
ST JOSEPH      CLEAR     19  10  68 W6        30.42R WCI  11
CHILLICOTHE      N/A     24  11  57 NW8       30.39R WCI  15

$$
MOZ066>068-077>081-088>096-101>105-080200-
...SOUTHWEST MISSOURI...

CITY           SKY/WX    TMP DP  RH WIND       PRES   REMARKS
SPRINGFIELD    LGT SNOW  29  25  85 N13       30.32R FOG     WCI  19
JOPLIN         CLOUDY    29  25  85 N10G20    30.38R WCI  20
BRANSON        CLOUDY    32  18  55 N9        30.30R WCI  24

$$
MOZ032>034-039>042-045>050-055>058-069>072-080200-
...CENTRAL MISSOURI...

CITY           SKY/WX    TMP DP  RH WIND       PRES   REMARKS
COLUMBIA       NOT AVBL
JEFFERSON CITY CLOUDY    30  22  72 W8        30.35R WCI  22
ROLLA          LGT SNOW  28  25  88 W8        30.30R FOG     WCI  20
SEDALIA        CLOUDY    27  22  81 W9        30.37R WCI  18
WARRENSBURG    MOCLDY    27  19  74 W6        30.38R WCI  20

$$
MOZ051-052-059>065-080200-
...EAST CENTRAL MISSOURI...

CITY           SKY/WX    TMP DP  RH WIND       PRES   REMARKS
ST LOUIS INTL  CLOUDY    36  18  48 NW12      30.28R WCI  28

$$
MOZ072>076-082>087-097>100-106>115-080200-
...SOUTH CENTRAL AND SOUTHEAST MISSOURI...

CITY           SKY/WX    TMP DP  RH WIND       PRES   REMARKS
CAPE GIRARDEAU CLOUDY    37  23  56 N10       30.27R WCI  30
POPLAR BLUFF   CLOUDY    40  25  55 N7        30.26R
WEST PLAINS    CLOUDY    35  18  49 N10       30.28R WCI  27

$$


USA.gov is the U.S. government's official web portal to all federal, state and local government web resources and services.